星链-2632 (STARLINK-2632 )

导读

STARLINK-2632是美国太空探索技术公司(SpaceX)于2021年5月9日发射的星链低轨互联网卫星,隶属于星链(Starlink)星座组网项目。星链项目计划在近地轨道部署超万颗卫星,旨在为全球提供高速低延迟宽带互联网服务,尤其覆盖偏远地区。该卫星服役至今已近5年,当前星链已有超7500颗卫星在轨运行,服务覆盖超150个国家,成为全球规模最大的低轨卫星星座。

Basic Information
目录编号:
48448
目录名称:
STARLINK-2632
国际标识:
2021-040W
轨道中心:
EARTH
卫星名称:
星链-2632
卫星全名:
星链-2632 (STARLINK-2632 )
卫星状态:
已陨落 最后检测时间 2024-08-13
发射日期:
2021-05-09 UTC
国别 :
美国 (US)
星等 :
--
Orbit Information
数据来源 国际轨道数据
星历时间: 2024-08-13T22:01:27+0800
轨道信息已过期669天
半长轴: 6589.051km
偏心率: 0.0003606
轨道倾角: 53.035°
近地点辐角 160.236°
升交点赤经 161.923°
平近点角 357.705°
近地点: 208.539km
远地点: 213.293km
周期: 88.714分钟
每日圈数: 16.231869
Detailed Information
固有亮度:
5
最大亮度:
2.5
卫星平台:
Starlink V1.0
覆盖范围:
全球
运营商:
太空探索技术公司
运营商所在国:
美国
制造商(研发单位):
太空探索技术公司
制造商所在国:
美国
使用方式:
暂无
Satellite Introduction
星链(Starlink)计划是由太空探索技术公司(SpaceX)提出的一个巨型低轨卫星互联网星座项目,计划在2019年至2024年间在太空搭建由约1.2万颗卫星组成的“星链”网络,其中1584颗将部署在地球上空550千米处的近地轨道,并从2020年开始工作。该卫星仍在工作。